Terminal Aerodrome Forecast
Issued by NWS Milwaukee/Sullivan, WI

Home | Current Version | Previous Version | Text Only | Print | Product List | Glossary On
Versions: 1 2 3 4 5 6 7 8 9 10 11 12 13 14 15 16 17 18 19 20 21 22 23 24 25 26 27 28 29 30 31 32 33 34 35 36 37 38 39 40 41 42 43 44 45 46 47 48 49 50
000
FTUS43 KMKX 272055 AAA
TAFMKE
TAF AMD
KMKE 272055Z 2721/2824 06009KT P6SM FEW025 SCT250
     FM272300 03004KT P6SM SCT110
     FM280200 33004KT P6SM SCT150
     FM281000 21004KT P6SM SCT200
     FM281500 19008KT P6SM BKN200
     FM281900 18012KT P6SM BKN250=

USA.gov is the U.S. government's official web portal to all federal, state and local government web resources and services.